Вернуться в каталог

ATLAS 5 CENTAUR DEB

LostHEO
NORAD 49372·DEBRIS·🇺🇸 United States

Запущен Oct 17, 2018 с Cape Canaveral Space Force Station

Loading…

Ближайшие Пролёты (ближайшие 24 часа)

TLE

УстаревшееSource: Space-Track

Эпоха: Dec 25, 2021, 10:19 UTC

1 49372U 18079FZ  21359.43001466 -.00000029  00000-0  00000+0 0  9995
2 49372  11.1193 179.7147 4707628  45.3851 344.6337  1.88407786  2336

Отслеживайте ATLAS 5 CENTAUR DEB в реальном времени с AllMySat

Download on the App Store